Location: Fairhaven
(34.9340°N, 89.7987°W)
Time: 00:17:28
(UTC+00:00)

BREEZE-M DEB (TANK) - Pass Details

Date: 13 February 2026
Orbit: 306 x 16065 km, 49.4° (Epoch: 7 March)

Event Time Altitude Azimuth Distance (km) Brightness Sun altitude
Rises 12:17:43 0° 228° (SW) 2,003 5.3 -6.7°
Reaches altitude 10° 12:19:09 10° 227° (SW) 1,264 4.3 -6.4°
Maximum altitude 12:21:26 82° 139° (SE) 461 2.5 -5.9°
Drops below altitude 10° 12:26:30 10° 52° (NE) 2,748 7.0 -4.9°
Sets 12:31:14 0° 52° (NE) 5,025 8.3 -4.0°
